Hourly Data Report for September 07, 2017

All times are specified in Local Standard Time (LST). Add 1 hour to adjust for Daylight Saving Time where and when it is observed.

EUREKA CLIMATE
NUNAVUT

79°59'21.000" N
85°56'02.000" W
10.00 m
2401199
71613
NEK

Download Data

Hourly Data (September 2017)
Hourly Data Report for September 7, 2017
Temp Definition
°C
Dew Point Temp Definition
°C
Rel Hum Definition
%
Wind Dir Definition
10's deg

Wind Spd Definition
km/h
Visibility Definition
km
Stn Press Definition
kPa
Hmdx Definition


Wind Chill Definition


Weather Definition


TIME
00:00 -5.6 -8.0 83 36 18   100.96   -12 LegendNANA
01:00 -5.7 -7.9 84 35 18   100.99   -12 LegendNANA
02:00 -5.5 -8.4 80 36 15   101.00   -11 LegendNANA
03:00 -5.6 -8.1 83 1 19   101.02   -12 LegendNANA
04:00 -5.8 -8.2 84 32 16   101.02   -12 LegendNANA
05:00 -6.2 -8.8 82 34 20   101.05   -13 LegendNANA
06:00 -6.8 -9.9 79 34 16   101.07   -13 LegendNANA
07:00 -7.3 -10.2 80 36 18   101.05   -14 LegendNANA
08:00 -7.6 -10.5 80 36 10   101.09   -12 LegendNANA
09:00 -7.4 -10.8 76 34 15   101.12   -14 LegendNANA
10:00 -7.1 -10.9 75 29 11   101.14   -12 LegendNANA
11:00 -7.0 -11.3 71 34 14   101.16   -13 LegendNANA
12:00 -7.5 -11.0 76 35 16   101.19   -14 LegendNANA
13:00 -7.5 -11.1 75 34 19   101.18   -15 LegendNANA
14:00 -7.6 -11.5 73 34 13   101.22   -13 LegendNANA
15:00 -7.8 -11.5 75 32 12   101.23   -13 LegendNANA
16:00 -6.9 -9.7 80 30 12   101.25   -12 LegendNANA
17:00 -7.6 -10.8 78 31 10   101.25   -12 LegendNANA
18:00 -6.8 -9.5 81 31 16   101.25   -13 LegendNANA
19:00 -7.3 -9.8 82 31 10   101.25   -12 LegendNANA
20:00 -7.8 -10.7 79 33 9   101.24   -12 LegendNANA
21:00 -8.0 -10.4 83 31 8   101.22   -12 LegendNANA
22:00 -7.9 -9.6 87 29 11   101.23   -13 LegendNANA
23:00 -9.1 -11.7 81 32 10   101.23   -14 LegendNANA

Notes on Data Quality.

Legend

  • E = Estimated
  • M = Missing
  • NA = Not Available
  • ‡ = Partner data that is not subject to review by the National Climate Archives
Date modified: